Location: Byszew
(52.1813°N, 19.2693°E)
Time: 03:52:27
(UTC+00:00)

Cosmos 2360 Rocket - Visible Passes

Search period start: 14 June 2021 00:00
Search period end: 24 June 2021 00:00
Orbit: 835 x 844 km, 71.0° (Epoch: 13 June)

Date Brightness Start Highest point End Pass type
(mag) Time Alt. Az. Time Alt. Az. Time Alt. Az.
14 Jun 4.8 00:22:51 10° NW 00:25:50 14° NNW 00:28:50 10° NNE visible
14 Jun 2.4 20:34:37 10° S 20:40:04 52° ESE 20:45:32 10° NE visible
14 Jun 3.6 22:19:03 10° WSW 22:24:17 38° NW 22:29:33 10° NNE visible
15 Jun 4.8 00:06:55 10° NW 00:10:00 15° NNW 00:13:04 10° NNE visible
15 Jun 2.5 20:18:55 10° S 20:24:20 49° ESE 20:29:45 10° NE visible
15 Jun 3.5 22:03:13 10° WSW 22:08:29 39° NW 22:13:47 10° NNE visible
15 Jun 4.9 23:50:59 10° WNW 23:54:09 15° NNW 23:57:20 10° NNE visible
16 Jun 2.5 20:03:14 10° S 20:08:36 46° ESE 20:13:58 10° NE visible
16 Jun 3.5 21:47:23 10° WSW 21:52:42 41° NW 21:58:03 10° NNE visible
16 Jun 4.9 23:35:04 10° WNW 23:38:19 15° NNW 23:41:35 10° NNE visible
17 Jun 5.3 01:23:16 10° NNW 01:24:58 11° N 01:26:40 10° NNE visible
17 Jun 2.6 19:47:33 10° S 19:52:51 44° ESE 19:58:11 10° NE visible
17 Jun 3.4 21:31:33 10° WSW 21:36:55 43° NW 21:42:18 10° NNE visible
17 Jun 4.9 23:19:08 10° WNW 23:22:29 16° NNW 23:25:50 10° NNE visible
18 Jun 5.3 01:07:28 10° NNW 01:09:07 11° N 01:10:46 10° NNE visible
18 Jun 3.4 21:15:44 10° WSW 21:21:08 45° NW 21:26:33 10° NNE visible
18 Jun 4.9 23:03:13 10° WNW 23:06:39 16° NNW 23:10:06 10° NNE visible
19 Jun 5.4 00:51:39 10° NNW 00:53:16 11° N 00:54:53 10° NNE visible
19 Jun 3.3 20:59:55 10° WSW 21:05:20 47° NW 21:10:48 10° NNE visible
19 Jun 4.9 22:47:18 10° WNW 22:50:49 16° NNW 22:54:20 10° NNE visible
20 Jun 5.4 00:35:49 10° NNW 00:37:25 11° N 00:39:00 10° NNE visible
20 Jun 3.3 20:44:06 10° SW 20:49:34 49° NW 20:55:03 10° NNE visible
20 Jun 5.0 22:31:23 10° WNW 22:35:00 17° NNW 22:38:36 10° NNE visible
21 Jun 5.5 00:19:58 10° NNW 00:21:34 11° N 00:23:08 10° NNE visible
21 Jun 3.2 20:28:17 10° SW 20:33:47 51° NW 20:39:18 10° NNE visible
21 Jun 5.0 22:15:28 10° WNW 22:19:09 17° NNW 22:22:52 10° NNE visible
22 Jun 5.5 00:04:08 10° NNW 00:05:42 11° N 00:07:17 10° NNE visible
22 Jun 3.1 20:12:29 10° SW 20:18:01 54° NW 20:23:34 10° NNE visible
22 Jun 5.0 21:59:33 10° WNW 22:03:20 18° NNW 22:07:07 10° NNE visible
22 Jun 5.6 23:48:17 10° NNW 23:49:52 11° N 23:51:26 10° NNE visible
23 Jun 5.2 01:32:47 10° NNW 01:36:25 17° NNE 01:40:02 10° ENE visible
23 Jun 3.1 19:56:41 10° SW 20:02:14 56° NW 20:07:48 10° NNE visible
23 Jun 5.1 21:43:39 10° WNW 21:47:31 18° NNW 21:51:22 10° NNE visible
23 Jun 5.6 23:32:25 10° NNW 23:34:00 11° N 23:35:36 10° NNE visible
